Amateur Radio Satellites - All Passes

Search period start: 25 May 2013 19:29
Search period end: 26 May 2013 19:29
Location: Fort Wayne, 41.1310°N, 85.1290°W

Satellite Date Start Highest point End Downlink Frequencies (MHz)
Time Altitude Azimuth
JAS-1B 25 May 19:33:28 19:41:32 40° 67° (ENE) 19:48:27 435.800 - 435.900 CW/SSB
AO-7 25 May 19:52:13 19:56:17 14° 272° (W) 20:00:22 29.400 - 29.500 MHz
Hamsat 25 May 19:57:20 20:01:32 89° 77° (ENE) 20:05:49 145.90 MHz
RS-15 25 May 20:11:45 20:21:18 27° 334° (NNW) 20:30:34 29.354 - 29.394 USB, Beacon 29.352 USB
SO-67 25 May 20:16:17 20:19:40 43° 74° (ENE) 20:23:05 435.3500 MHz FM
HO-68 25 May 20:23:09 20:27:06 16° 52° (NE) 20:31:04 435.675 MHz FM
STRAND 1 25 May 20:28:36 20:33:44 69° 286° (WNW) 20:38:51 ?
JAS-2 25 May 20:33:54 20:37:43 15° 53° (NE) 20:41:31 435.800 - 435.900 CW/SSB, 435.910 FM
UOSAT-12 25 May 20:55:17 20:59:50 61° 241° (WSW) 21:04:22 437.025 FM, 437.400 FM
JAS-1B 25 May 21:23:12 21:31:56 48° 260° (W) 21:39:26 435.800 - 435.900 CW/SSB
SO-67 25 May 21:52:24 21:53:22 11° 269° (W) 21:54:19 435.3500 MHz FM
Oscar 11 25 May 22:04:02 22:07:52 32° 70° (ENE) 22:11:44 145.825 FM, Beacon 2401.500 USB
HO-68 25 May 22:06:34 22:13:41 79° 72° (ENE) 22:20:50 435.675 MHz FM
JAS-2 25 May 22:13:39 22:21:20 65° 71° (ENE) 22:29:01 435.800 - 435.900 CW/SSB, 435.910 FM
RS-15 25 May 22:30:52 22:39:06 22° 11° (N) 22:47:06 29.354 - 29.394 USB, Beacon 29.352 USB
OPAL 25 May 22:46:31 22:51:32 53° 69° (ENE) 22:56:32 ?
KITSAT 1 25 May 22:52:43 23:00:22 50° 112° (ESE) 23:08:05 435.175 FM
Oscar 11 25 May 23:40:47 23:44:08 22° 266° (W) 23:47:31 145.825 FM, Beacon 2401.500 USB
HO-68 25 May 23:57:21 00:02:04 19° 269° (W) 00:06:49 435.675 MHz FM
JAS-2 26 May 00:00:20 00:06:43 28° 268° (W) 00:13:10 435.800 - 435.900 CW/SSB, 435.910 FM
OPAL 26 May 00:27:05 00:30:42 19° 265° (W) 00:34:19 ?
RS-15 26 May 00:44:44 00:55:24 46° 43° (NE) 01:05:43 29.354 - 29.394 USB, Beacon 29.352 USB
KITSAT 1 26 May 00:48:23 00:55:54 41° 312° (NW) 01:03:31 435.175 FM
MaSat-1 26 May 01:19:48 01:26:03 36° 109° (ESE) 01:31:21 437.345 MHz
AO-40 26 May 02:00:15 03:38:47 38° 221° (SW) 08:30:22 Beacon 2401.320
ISS 26 May 02:28:08 02:31:24 65° 141° (SE) 02:34:42 145.800 FM
Oscar 19 26 May 02:29:28 02:32:54 18° 92° (E) 02:36:19 437.125 CW, 437.150 USB
Uribyol 2 26 May 02:33:19 02:36:39 17° 91° (E) 02:39:59 436.500 FM
KITSAT 1 26 May 02:49:52 02:53:56 14° 339° (NNW) 02:58:00 435.175 FM
RS-15 26 May 02:57:23 03:08:02 57° 247° (WSW) 03:18:30 29.354 - 29.394 USB, Beacon 29.352 USB
MaSat-1 26 May 03:01:44 03:08:08 42° 300° (WNW) 03:13:24 437.345 MHz
Oscar 16 26 May 03:08:19 03:13:20 49° 100° (E) 03:18:18 437.025 USB, Beacon 2401.1428
AO-27 26 May 03:25:24 03:30:30 52° 100° (E) 03:35:35 436.795 MHz FM
ITAMSAT 1 26 May 03:31:07 03:36:17 57° 101° (E) 03:41:25 435.822 SSB
AO-Echo 26 May 03:44:10 03:48:08 25° 95° (E) 03:52:10 ?
ISS 26 May 04:05:39 04:08:22 23° 339° (NNW) 04:11:06 145.800 FM
Oscar 19 26 May 04:07:33 04:12:36 55° 288° (WNW) 04:17:35 437.125 CW, 437.150 USB
Gurwin Techsat 1B 26 May 04:10:40 04:14:05 17° 91° (E) 04:17:28 435.225 FM
Uribyol 2 26 May 04:11:23 04:16:32 59° 288° (WNW) 04:21:39 436.500 FM
Saudisat 1A 26 May 04:36:43 04:39:07 14° 108° (ESE) 04:41:32 436.775 MHz
Oscar 16 26 May 04:48:32 04:52:20 21° 296° (WNW) 04:56:07 437.025 USB, Beacon 2401.1428
KITSAT 1 26 May 04:51:20 04:53:47 11° 11° (N) 04:56:14 435.175 FM
AO-27 26 May 05:05:51 05:09:39 21° 297° (WNW) 05:13:27 436.795 MHz FM
ITAMSAT 1 26 May 05:11:45 05:15:20 19° 298° (WNW) 05:18:55 435.822 SSB
Uosat F 26 May 05:18:08 05:23:12 87° 104° (ESE) 05:28:14 435.120 FM
AO-Echo 26 May 05:22:41 05:26:58 34° 291° (WNW) 05:31:21 ?
TMSAT-1 26 May 05:25:08 05:30:23 57° 100° (E) 05:35:35 436.925 FM
ISS 26 May 05:44:14 05:46:00 14° 359° (N) 05:47:46 145.800 FM
Gurwin Techsat 1B 26 May 05:49:13 05:54:27 60° 288° (WNW) 05:59:39 435.225 FM
AO-7 26 May 05:55:58 06:03:33 37° 98° (E) 06:11:04 29.400 - 29.500 MHz
PCSat 26 May 06:05:45 06:07:04 11° 101° (ESE) 06:08:23 145.825 MHz
STRAND 1 26 May 06:07:08 06:10:55 21° 64° (ENE) 06:14:43 ?
Oscar 10/S400 26 May 06:09:48 09:28:22 60° 234° (SW) 16:31:23 145.825 - 145.975 CW/USB, Beacon 145.810 USB
Saudisat 1A 26 May 06:13:45 06:18:17 65° 305° (NW) 06:22:52 436.775 MHz
Sapphire 26 May 06:35:54 06:39:52 21° 106° (ESE) 06:43:52 437.095 MHz 1200 baud AX-25 AFSK
KITSAT 1 26 May 06:45:53 06:52:38 28° 40° (NE) 06:59:21 435.175 FM
Uosat F 26 May 06:59:23 07:01:16 12° 301° (WNW) 07:03:09 435.120 FM
TMSAT-1 26 May 07:06:10 07:09:51 20° 297° (WNW) 07:13:32 436.925 FM
ISS 26 May 07:20:59 07:23:39 22° 20° (NNE) 07:26:19 145.800 FM
PCSat 26 May 07:44:13 07:49:37 87° 118° (ESE) 07:55:05 145.825 MHz
STRAND 1 26 May 07:44:53 07:49:47 47° 260° (W) 07:54:43 ?
Hamsat 26 May 07:45:01 07:47:53 17° 92° (E) 07:50:45 145.90 MHz
AO-7 26 May 07:48:31 07:56:30 52° 296° (WNW) 08:04:28 29.400 - 29.500 MHz
Saudisat 1A 26 May 07:57:16 07:58:54 12° 325° (NW) 08:00:31 436.775 MHz
Sapphire 26 May 08:17:36 08:22:53 54° 304° (WNW) 08:28:12 437.095 MHz 1200 baud AX-25 AFSK
SO-50 26 May 08:27:44 08:32:21 49° 117° (ESE) 08:36:55 436.795 FM
KITSAT 1 26 May 08:40:49 08:48:59 83° 242° (WSW) 08:57:06 435.175 FM
ISS 26 May 08:57:19 09:00:40 76° 218° (SW) 09:04:01 145.800 FM
JAS-1B 26 May 09:09:28 09:15:11 49° 99° (E) 09:20:39 435.800 - 435.900 CW/SSB
SO-67 26 May 09:16:19 09:19:53 59° 100° (E) 09:23:24 435.3500 MHz FM
Hamsat 26 May 09:20:01 09:24:09 43° 288° (WNW) 09:28:18 145.90 MHz
PCSat 26 May 09:30:18 09:33:48 17° 318° (NW) 09:37:18 145.825 MHz
HO-68 26 May 09:37:07 09:40:19 13° 88° (E) 09:43:30 435.675 MHz FM
AO-7 26 May 09:44:42 09:47:21 12° 317° (NW) 09:49:59 29.400 - 29.500 MHz
Sapphire 26 May 10:06:13 10:07:36 11° 325° (NW) 10:08:58 437.095 MHz 1200 baud AX-25 AFSK
SO-50 26 May 10:09:21 10:13:12 24° 315° (NW) 10:17:02 436.795 FM
KITSAT 1 26 May 10:38:40 10:43:08 16° 260° (W) 10:47:36 435.175 FM
OPAL 26 May 10:58:44 11:00:53 13° 92° (E) 11:03:01 ?
JAS-1B 26 May 11:01:04 11:05:28 22° 300° (WNW) 11:09:42 435.800 - 435.900 CW/SSB
UOSAT-12 26 May 11:06:47 11:10:59 40° 116° (ESE) 11:15:14 437.025 FM, 437.400 FM
JAS-2 26 May 11:09:51 11:16:24 55° 99° (E) 11:22:09 435.800 - 435.900 CW/SSB, 435.910 FM
HO-68 26 May 11:21:48 11:29:00 82° 106° (ESE) 11:36:11 435.675 MHz FM
Oscar 11 26 May 11:27:37 11:31:59 67° 101° (ESE) 11:36:20 145.825 FM, Beacon 2401.500 USB
PANSAT 26 May 11:46:28 11:48:02 12° 174° (S) 11:49:35 not established
MaSat-1 26 May 11:46:54 11:50:02 72° 246° (WSW) 11:52:39 437.345 MHz
OPAL 26 May 12:35:19 12:40:18 72° 288° (WNW) 12:45:13 ?
UOSAT-12 26 May 12:47:31 12:51:17 25° 314° (NW) 12:55:06 437.025 FM, 437.400 FM
JAS-2 26 May 12:55:36 13:00:56 26° 300° (WNW) 13:05:47 435.800 - 435.900 CW/SSB, 435.910 FM
Saudisat 1A 26 May 13:02:47 13:05:33 16° 39° (NE) 13:08:16 436.775 MHz
Oscar 11 26 May 13:05:54 13:07:39 12° 298° (WNW) 13:09:24 145.825 FM, Beacon 2401.500 USB
AO-27 26 May 13:09:24 13:10:06 10° 57° (ENE) 13:10:49 436.795 MHz FM
HO-68 26 May 13:10:54 13:15:53 21° 304° (NW) 13:20:53 435.675 MHz FM
ITAMSAT 1 26 May 13:14:07 13:15:41 11° 58° (ENE) 13:17:16 435.822 SSB
PANSAT 26 May 13:26:17 13:27:37 11° 188° (S) 13:28:56 not established
Oscar 19 26 May 13:46:09 13:50:26 27° 66° (ENE) 13:54:44 437.125 CW, 437.150 USB
Uribyol 2 26 May 13:51:02 13:55:16 26° 65° (ENE) 13:59:32 436.500 FM
Oscar 16 26 May 14:25:10 14:30:20 71° 74° (ENE) 14:35:32 437.025 USB, Beacon 2401.1428
Saudisat 1A 26 May 14:41:17 14:45:51 82° 239° (WSW) 14:50:18 436.775 MHz
AO-27 26 May 14:43:34 14:48:44 77° 74° (ENE) 14:53:57 436.795 MHz FM
ITAMSAT 1 26 May 14:49:11 14:54:22 85° 75° (ENE) 14:59:35 435.822 SSB
PCSat 26 May 14:50:47 14:53:19 13° 38° (NE) 14:55:51 145.825 MHz
Uosat F 26 May 14:55:31 14:58:17 15° 61° (ENE) 15:01:03 435.120 FM
AO-Echo 26 May 14:57:25 15:01:41 33° 69° (ENE) 15:05:53 ?
AO-7 26 May 15:09:36 15:11:48 11° 42° (NE) 15:14:00 29.400 - 29.500 MHz
RS-15 26 May 15:10:10 15:19:11 26° 102° (ESE) 15:27:56 29.354 - 29.394 USB, Beacon 29.352 USB
TMSAT-1 26 May 15:10:15 15:12:06 12° 58° (ENE) 15:13:57 436.925 FM
Sapphire 26 May 15:23:02 15:27:03 21° 45° (NE) 15:31:04 437.095 MHz 1200 baud AX-25 AFSK
Oscar 19 26 May 15:24:47 15:29:36 38° 262° (W) 15:34:27 437.125 CW, 437.150 USB
Uribyol 2 26 May 15:29:45 15:34:34 39° 262° (W) 15:39:26 436.500 FM
Gurwin Techsat 1B 26 May 15:31:31 15:35:55 28° 66° (ENE) 15:40:21 435.225 FM
Oscar 16 26 May 16:07:39 16:10:13 14° 270° (W) 16:12:48 437.025 USB, Beacon 2401.1428
AO-27 26 May 16:26:46 16:28:51 12° 271° (W) 16:30:55 436.795 MHz FM
Uosat F 26 May 16:31:32 16:36:30 69° 258° (WSW) 16:41:31 435.120 FM
PCSat 26 May 16:32:22 16:37:48 68° 59° (ENE) 16:43:12 145.825 MHz
ITAMSAT 1 26 May 16:33:09 16:34:31 11° 272° (W) 16:35:53 435.822 SSB
AO-Echo 26 May 16:36:31 16:40:30 26° 265° (W) 16:44:27 ?
TMSAT-1 26 May 16:45:55 16:51:12 86° 75° (ENE) 16:56:32 436.925 FM
AO-7 26 May 16:54:44 17:02:36 50° 63° (ENE) 17:10:30 29.400 - 29.500 MHz
SO-50 26 May 17:00:03 17:04:24 42° 51° (NE) 17:08:39 436.795 FM
Sapphire 26 May 17:05:36 17:11:01 69° 244° (WSW) 17:16:23 437.095 MHz 1200 baud AX-25 AFSK
Gurwin Techsat 1B 26 May 17:10:48 17:15:43 38° 263° (W) 17:20:40 435.225 FM
RS-15 26 May 17:18:09 17:30:16 86° 302° (WNW) 17:41:52 29.354 - 29.394 USB, Beacon 29.352 USB
JAS-1B 26 May 18:11:07 18:11:17 10° 51° (NE) 18:11:27 435.800 - 435.900 CW/SSB
PCSat 26 May 18:17:20 18:20:37 16° 256° (WSW) 18:23:54 145.825 MHz
TMSAT-1 26 May 18:30:18 18:31:48 11° 272° (W) 18:33:19 436.925 FM
Hamsat 26 May 18:40:29 18:42:22 13° 63° (ENE) 18:44:16 145.90 MHz
SO-50 26 May 18:41:19 18:44:43 21° 249° (WSW) 18:48:05 436.795 FM
AO-7 26 May 18:48:00 18:55:31 38° 262° (W) 19:03:07 29.400 - 29.500 MHz

Developed and maintained by Chris Peat, Heavens-Above GmbH. Please read the updated FAQ before sending e-mail. Imprint. DLR
